STARLINK-1131, 45047

Orbit data source: Space-Track

STARLINK-1131, 45047 is a payload satellite owned by SpaceX/Seattle (US) in LEO that was launched on Wed, 29 Jan 2020 UTC via an FALCON 9 launch vehicle from the Air Force Eastern Test Range (AFETR). Payload-class satellites include a variety of spacecraft equipped with specific instruments for various scientific and technological missions. These include communications satellites like Starlink; space stations such as the ISS; scientific satellites like the Hubble; Earth observation satellites from companies like Planet Labs, Umbra, and HawkEye 360; GPS; miniature CubeSats for education and research; and military/defense satellites.

Loading next visibility...
Identifier
45047, 2020-006D
Orbit
LEO
Country
Flag of USUS
Related business
Manufacturer
SpaceX/Seattle
Mission
Operational Commercial Communications
Bus & Motor
STARLINK, Unknown motor
Mass
260 kg wet, ~248 kg dry
Launch date (UTC)
2020-01-29 (6 years ago)
Launch vehicle
FALCON 9
Launch site
Air Force Eastern Test Range (AFETR)
Object type
Payload
Rocket body
Debris
Shape & HBR
Box + 1 Pan, 10.1 m
Radar Cross Section
13.562 m², Large (>1 m²)

Expand to show TLE details & history
Last TLE update: 16 hours ago

TLE from 16 hours ago
0 STARLINK-1131
1 45047U 20006D   26107.12180459  .00026023  00000-0  83544-3 0  9994
2 45047  53.1579 102.3056 0002417  74.2285 285.8983 15.32156563342437
Epoch: 2026-04-17T02:55Z
TLE epoch observation values (Epoch: 2026-04-17T02:55:23.916Z)
Latitude
-0.00003°
Longitude
-146.80361°
Altitude
469.827 km
Speed
7.633 km/s
True Right ascension
06h 49m 13s
True Declination
0° 00' 00"
Sunlit
Object was in daylight at epoch
Visualization orbit readout
Latitude
Unknown
Longitude
Unknown
Altitude
Unknown
Speed
Unknown
Apparent Right ascension
Unknown
Apparent Declination
Unknown
Sunlit
N/A
Visualization observer readout
Local Sidereal Time
01:24:05
Azimuth
Unknown
Elevation
Unknown
Doppler factor
Unknown
Orbital elements
Apogee altitude
471.291 km
Perigee altitude
467.981 km
Semi-major axis
6,847.773 km
Eccentricity
0.00024
Inclination
53.1579°
RAAN
102.3056°
Arg. of periapsis
74.2285°
True anomaly
285.87166°
Mean anomaly
285.8983°
Eccentric anomaly
285.88498°
Mean motion
3.83018 °/min
Orbital period
93.99 mins
BSTAR
0.00083544
Loading maneuver chart data...
Computing Atmospheric mass density...

Documentation

Showing up to 5 results
|